Epoch = 2006 Dec. 11.0 TT T = 2006 Dec. 12.00569 TT Peri. = 13.46881 e = 0.1861814 Node = 26.92659 2000.0 q = 2.5509408 AU Incl. = 1.10270 a = 3.1345326 AU n = 0.17760078 P = 5.55 years
m1 = 16.5 + 5 logΔ + 10.0 log r